Date String (YYYY-MM-DD hh:mm:ss) UTC,Instrument flags,absolute air pressure of the measurement (hPa),sample flow rate (lpm),inlet stack bypass flow (lpm),air temperature of the measurement (°C),ambient temperature measured by the external sensor (°C),aerosol sample conditioner tube jacket temperature (°C),OPC LED temperature (°C),internal box temperature (°C),relative humidity of the measurement (%),span deviation,mass concentration of particles derived from Lorenz-Mie calculation of OPC scattering (μg/m³),mass concentration of particles derived from Lorenz-Mie calculation of OPC scattering (μg/m³),mass concentration of particles derived from Lorenz-Mie calculation of OPC scattering (μg/m³)
DateTimeUTC,F1_M11,P_M11,Q1_M11,Q2_M11,T1_M11,T2_M11,T3_M11,T4_M11,T5_M11,U1_M11,ZSPAN_M11,X0_M11,X2_M11,X1_M11
2023-08-22 02:00:00,SystemResetWarning,0833.0,4.99,000.00,027.5,024.8,000.0,035.8,029.0,21.7,0000.5,0024.65,0007.66,0005.74
2023-08-22 02:01:00,SystemResetWarning,0833.1,5.01,000.00,027.6,025.3,000.0,035.8,029.2,21.7,0001.1,0024.87,0007.62,0005.73
2023-08-22 02:02:00,SystemResetWarning,0833.2,5.00,000.00,027.6,025.7,000.0,035.9,029.4,21.8,0001.2,0024.95,0007.55,0005.72
2023-08-22 02:03:00,SystemResetWarning,0833.2,5.00,000.00,027.7,026.1,000.0,035.9,029.5,21.8,0000.9,0023.52,0007.55,0005.72
2023-08-22 02:04:00,SystemResetWarning,0833.1,4.99,000.00,027.7,025.9,000.0,035.9,029.5,21.8,0000.7,0022.53,0007.50,0005.71
2023-08-22 02:05:00,SystemResetWarning,0833.1,4.99,000.00,027.7,024.4,000.0,035.8,029.3,21.9,0001.0,0022.18,0007.47,0005.69
2023-08-22 02:06:00,SystemResetWarning,0833.0,5.02,000.00,027.6,023.9,000.0,035.7,029.1,22.0,0000.7,0022.39,0007.40,0005.66
2023-08-22 02:07:00,SystemResetWarning,0833.2,5.00,000.00,027.6,024.2,000.0,035.7,029.0,22.1,0001.3,0021.93,0007.30,0005.64
2023-08-22 02:08:00,SystemResetWarning,0833.1,5.00,000.00,027.5,024.6,000.0,035.8,029.1,22.2,0001.8,0020.87,0007.27,0005.66
2023-08-22 02:09:00,SystemResetWarning,0833.1,5.00,000.00,027.6,025.1,000.0,035.8,029.2,22.3,0001.5,0020.20,0007.22,0005.65
2023-08-22 02:10:00,SystemResetWarning,0833.2,5.00,000.00,027.6,025.5,000.0,035.9,029.3,22.2,0001.6,0019.67,0007.19,0005.62
2023-08-22 02:11:00,SystemResetWarning,0833.2,5.00,000.00,027.7,025.9,000.0,035.9,029.5,22.2,0001.7,0019.06,0007.23,0005.62
2023-08-22 02:12:00,SystemResetWarning,0833.2,4.99,000.00,027.7,026.2,000.0,035.9,029.5,22.1,0001.3,0018.78,0007.27,0005.64
2023-08-22 02:13:00,SystemResetWarning,0833.2,4.98,000.00,027.7,025.3,000.0,035.9,029.4,22.1,0001.2,0018.70,0007.36,0005.65
2023-08-22 02:14:00,SystemResetWarning,0833.2,5.01,000.00,027.7,024.0,000.0,035.8,029.1,22.3,0001.3,0018.61,0007.38,0005.65
2023-08-22 02:15:00,SystemResetWarning,0833.2,5.01,000.00,027.6,024.1,000.0,035.7,029.1,22.4,0001.6,0018.76,0007.36,0005.65
2023-08-22 02:16:00,SystemResetWarning,0833.2,4.99,000.00,027.6,024.4,000.0,035.8,029.0,22.5,0001.9,0019.19,0007.36,0005.64
2023-08-22 02:17:00,SystemResetWarning,0833.2,5.01,000.00,027.6,024.9,000.0,035.8,029.1,22.5,0001.8,0019.13,0007.40,0005.65
2023-08-22 02:18:00,SystemResetWarning,0833.2,5.00,000.00,027.6,025.3,000.0,035.8,029.3,22.5,0001.3,0019.51,0007.49,0005.66
2023-08-22 02:19:00,SystemResetWarning,0833.3,5.00,000.00,027.6,025.7,000.0,035.9,029.4,22.5,0000.8,0020.51,0007.53,0005.65
2023-08-22 02:20:00,SystemResetWarning,0833.3,5.00,000.00,027.7,026.1,000.0,035.9,029.5,22.4,0000.6,0021.16,0007.55,0005.64
2023-08-22 02:21:00,SystemResetWarning,0833.3,4.99,000.00,027.8,026.0,000.0,035.9,029.5,22.5,0000.7,0023.22,0007.59,0005.66
2023-08-22 02:22:00,SystemResetWarning,0833.3,4.99,000.00,027.7,024.6,000.0,035.8,029.2,22.5,0000.6,0024.42,0007.60,0005.65
2023-08-22 02:23:00,SystemResetWarning,0833.3,5.01,000.00,027.6,023.8,000.0,035.8,029.0,22.7,0001.0,0024.54,0007.60,0005.65
2023-08-22 02:24:00,SystemResetWarning,0833.3,5.01,000.00,027.6,024.2,000.0,035.7,028.9,22.6,0001.2,0024.65,0007.51,0005.64
2023-08-22 02:25:00,SystemResetWarning,0833.3,5.00,000.00,027.5,024.6,000.0,035.8,029.0,22.8,0001.4,0024.59,0007.44,0005.64
2023-08-22 02:26:00,SystemResetWarning,0833.4,5.01,000.00,027.5,025.0,000.0,035.8,029.2,22.7,0001.1,0024.52,0007.43,0005.65
2023-08-22 02:27:00,SystemResetWarning,0833.4,5.00,000.00,027.6,025.5,000.0,035.9,029.3,22.8,0000.6,0024.57,0007.46,0005.66
2023-08-22 02:28:00,SystemResetWarning,0833.4,5.00,000.00,027.6,025.9,000.0,035.9,029.4,22.6,0000.5,0024.32,0007.49,0005.68
2023-08-22 02:29:00,SystemResetWarning,0833.5,5.00,000.00,027.7,026.2,000.0,035.9,029.5,22.7,0000.7,0023.94,0007.50,0005.69
2023-08-22 02:30:00,SystemResetWarning,0833.4,4.99,000.00,027.7,025.4,000.0,035.9,029.4,22.6,0000.6,0023.05,0007.44,0005.68
2023-08-22 02:31:00,SystemResetWarning,0833.4,5.00,000.00,027.6,023.9,000.0,035.8,029.1,22.6,0000.8,0023.10,0007.49,0005.71
2023-08-22 02:32:00,SystemResetWarning,0833.4,5.02,000.00,027.6,023.9,000.0,035.7,029.1,22.7,0001.2,0022.38,0007.52,0005.72
2023-08-22 02:33:00,SystemResetWarning,0833.5,4.99,000.00,027.5,024.3,000.0,035.7,029.0,22.9,0001.7,0020.62,0007.52,0005.74
2023-08-22 02:34:00,SystemResetWarning,0833.5,5.00,000.00,027.5,024.7,000.0,035.8,029.1,23.0,0001.8,0020.93,0007.53,0005.76
2023-08-22 02:35:00,SystemResetWarning,0833.5,5.00,000.00,027.6,025.2,000.0,035.8,029.2,23.0,0001.6,0020.81,0007.56,0005.78
2023-08-22 02:36:00,SystemResetWarning,0833.6,5.01,000.00,027.6,025.6,000.0,035.9,029.3,22.9,0000.8,0020.95,0007.60,0005.79
2023-08-22 02:37:00,SystemResetWarning,0833.6,5.00,000.00,027.7,026.0,000.0,035.9,029.4,22.9,0000.8,0021.18,0007.64,0005.82
2023-08-22 02:38:00,SystemResetWarning,0833.6,5.00,000.00,027.7,026.3,000.0,036.0,029.6,22.9,0001.0,0020.59,0007.69,0005.84
2023-08-22 02:39:00,SystemResetWarning,0833.7,4.98,000.00,027.7,025.5,000.0,035.9,029.4,22.9,0001.0,0021.12,0007.71,0005.87
2023-08-22 02:40:00,SystemResetWarning,0833.6,5.00,000.00,027.7,023.9,000.0,035.8,029.1,22.7,0000.7,0022.50,0007.74,0005.90
2023-08-22 02:41:00,SystemResetWarning,0833.6,5.02,000.00,027.6,023.8,000.0,035.8,029.0,22.9,0000.9,0022.98,0007.81,0005.95
2023-08-22 02:42:00,SystemResetWarning,0833.7,4.99,000.00,027.5,024.2,000.0,035.8,029.0,23.0,0000.8,0023.17,0007.80,0005.96
2023-08-22 02:43:00,SystemResetWarning,0833.7,5.00,000.00,027.5,024.7,000.0,035.8,029.1,23.0,0000.4,0021.97,0007.74,0005.99
2023-08-22 02:44:00,SystemResetWarning,0833.7,5.01,000.00,027.6,025.1,000.0,035.8,029.2,22.8,-000.1,0021.01,0007.72,0006.01
2023-08-22 02:45:00,SystemResetWarning,0833.7,5.00,000.00,027.6,025.5,000.0,035.9,029.3,22.8,-000.1,0020.82,0007.76,0006.03
2023-08-22 02:46:00,SystemResetWarning,0833.7,5.00,000.00,027.6,025.9,000.0,035.9,029.4,22.8,-000.3,0020.87,0007.78,0006.05
2023-08-22 02:47:00,SystemResetWarning,0833.7,5.00,000.00,027.7,026.3,000.0,035.9,029.6,22.7,0000.3,0020.63,0007.82,0006.09
2023-08-22 02:48:00,SystemResetWarning,0833.7,4.99,000.00,027.7,025.6,000.0,035.9,029.5,22.6,0000.7,0019.76,0007.84,0006.12
2023-08-22 02:49:00,SystemResetWarning,0833.7,5.00,000.00,027.7,024.0,000.0,035.8,029.2,22.8,0000.9,0019.73,0007.90,0006.16
2023-08-22 02:50:00,SystemResetWarning,0833.7,5.02,000.00,027.6,023.9,000.0,035.7,029.1,22.8,0000.9,0019.44,0007.93,0006.18
2023-08-22 02:51:00,SystemResetWarning,0833.7,5.00,000.00,027.6,024.2,000.0,035.8,029.0,22.9,0001.2,0018.55,0007.93,0006.17
2023-08-22 02:52:00,SystemResetWarning,0833.7,5.00,000.00,027.5,024.6,000.0,035.8,029.1,23.0,0001.2,0018.00,0007.91,0006.17
2023-08-22 02:53:00,SystemResetWarning,0833.7,5.00,000.00,027.6,025.1,000.0,035.8,029.2,23.0,0000.9,0016.67,0007.88,0006.19
2023-08-22 02:54:00,SystemResetWarning,0833.7,5.00,000.00,027.6,025.5,000.0,035.9,029.3,23.0,0000.9,0016.85,0007.91,0006.23
2023-08-22 02:55:00,SystemResetWarning,0833.7,5.00,000.00,027.6,025.9,000.0,035.9,029.4,23.0,0000.9,0017.76,0007.98,0006.26
2023-08-22 02:56:00,SystemResetWarning,0833.7,5.01,000.00,027.7,026.2,000.0,036.0,029.5,23.0,0001.0,0018.28,0007.99,0006.28
2023-08-22 02:57:00,SystemResetWarning,0833.8,4.99,000.00,027.8,026.3,000.0,036.0,029.6,22.9,0001.4,0018.36,0008.02,0006.32
2023-08-22 02:58:00,SystemResetWarning,0833.8,4.98,000.00,027.7,025.0,000.0,035.9,029.4,22.8,0001.3,0019.37,0008.06,0006.33
2023-08-22 02:59:00,SystemResetWarning,0833.8,5.00,000.00,027.7,023.8,000.0,035.8,029.2,22.9,0000.8,0020.33,0008.15,0006.34
